Alexandria, LA

7:28 AM CDT on May 28, 2017 (GMT -0500)
Alexandria International

Weather History for KAEX - January, 1998

Change the Weather History Date:

Sunday, January 25, 1998

  Actual Average Record
Temperature  
Mean Temperature 44 °F 49 °F  
Max Temperature 59 °F 60 °F 81 °F (1950)
Min Temperature 30 °F 38 °F 11 °F (1963)
Degree Days  
Heating Degree Days 20 16  
Month to date heating degree days 400  
Since 1 July heating degree days 1189  
Moisture  
Dew Point 36 °F    
Average Humidity 77    
Maximum Humidity 100    
Minimum Humidity 44    
Precipitation  
Precipitation 0.00 in 0.18 in 3.45 in (1990)
Month to date precipitation 4.01  
Year to date precipitation 4.01  
Snow  
Snow 0.00 in - T in (1948)
Month to date snowfall  
Since 1 July snowfall  
Snow Depth -    
Sea Level Pressure  
Sea Level Pressure 30.14 in    
Wind  
Wind Speed 4 mph (SE)    
Max Wind Speed 14 mph    
Max Gust Speed 18 mph    
Visibility 10 miles    
Events      
T = Trace of Precipitation, MM = Missing Value Source: NWS Daily Summary

Daily Weather History Graph

Daily Weather History Graph

Search for Another Location

Airport or City:

Trip Planner

Search our weather history database for the weather conditions in past years. The results will help you decide how hot, cold, wet, or windy it might be!

Date:

Astronomy

Jan. 25, 1998 Rise Set
Actual Time 7:06 AM CST 5:38 PM CST
Civil Twilight 6:40 AM CST 6:04 PM CST
Nautical Twilight 6:11 AM CST 6:34 PM CST
Astronomical Twilight 5:42 AM CST 7:02 PM CST
Moon 4:35 AM CST (1/25) 3:22 PM CST (1/25)
Length of Visible Light 11h 23m
Length of Day
10h 32m
Waning Crescent, 8% of the Moon is Illuminated
Jan 25
Waning Crescent
Jan 28
New
Feb 3
First Quarter
Feb 11
Full
Feb 19
Last Quarter

Hourly Weather History & Observations

Time (CST) Temp. Windchill Dew Point Humidity Pressure Visibility Wind Dir Wind Speed Gust Speed Precip Events Conditions
12:50 AM 33.8 °F - 33.8 °F 100% 30.16 in 10.0 mi Calm Calm - N/A   Clear
1:55 AM 32.0 °F - 32.0 °F 100% 30.16 in 10.0 mi Calm Calm - N/A   Clear
2:45 AM 32.0 °F - 32.0 °F 100% 30.16 in 10.0 mi Calm Calm - N/A   Clear
3:45 AM 30.2 °F - 30.2 °F 100% 30.15 in 10.0 mi Calm Calm - N/A   Clear
4:45 AM 30.2 °F - 30.2 °F 100% 30.15 in 10.0 mi Calm Calm - N/A   Clear
5:50 AM 30.2 °F - 30.2 °F 100% 30.16 in 7.0 mi Calm Calm - N/A   Clear
6:50 AM 30.2 °F - 30.2 °F 100% 30.20 in 10.0 mi Calm Calm - N/A   Clear
7:49 AM 33.8 °F - 33.8 °F 100% 30.22 in 10.0 mi Calm Calm - N/A   Clear
8:45 AM 39.2 °F - 37.4 °F 93% 30.21 in 10.0 mi Calm Calm - N/A   Scattered Clouds
9:49 AM 46.4 °F 40.4 °F 39.2 °F 76% 30.22 in 10.0 mi SE 13.8 mph - N/A   Scattered Clouds
10:50 AM 51.8 °F - 39.2 °F 62% 30.22 in 10.0 mi SE 13.8 mph - N/A   Scattered Clouds
11:50 AM 55.4 °F - 39.2 °F 54% 30.21 in 10.0 mi SE 13.8 mph - N/A   Partly Cloudy
12:50 PM 59.0 °F - 39.2 °F 48% 30.13 in 10.0 mi SE 9.2 mph - N/A   Partly Cloudy
1:50 PM 57.2 °F - 37.4 °F 48% 30.11 in 10.0 mi SE 13.8 mph - N/A   Partly Cloudy
2:50 PM 57.2 °F - 35.6 °F 44% 30.10 in 10.0 mi SE 11.5 mph 18.4 mph N/A   Scattered Clouds
3:50 PM 59.0 °F - 37.4 °F 45% 30.08 in 10.0 mi SSE 11.5 mph - N/A   Scattered Clouds
4:55 PM 57.2 °F - 37.4 °F 48% 30.07 in 10.0 mi SSE 11.5 mph - N/A   Scattered Clouds
5:50 PM 53.6 °F - 37.4 °F 54% 30.09 in 10.0 mi SE 5.8 mph - N/A   Scattered Clouds
6:49 PM 46.4 °F - 39.2 °F 76% 30.10 in 10.0 mi Calm Calm - N/A   Mostly Cloudy
7:50 PM 46.4 °F 42.9 °F 42.8 °F 87% 30.12 in 10.0 mi ESE 6.9 mph - N/A   Mostly Cloudy
8:50 PM 46.4 °F 43.5 °F 42.8 °F 87% 30.10 in 10.0 mi SSE 5.8 mph - N/A   Overcast
9:47 PM 48.2 °F - 42.8 °F 82% 30.10 in 10.0 mi ESE 6.9 mph - N/A   Overcast
10:50 PM 50.0 °F - 39.2 °F 66% 30.09 in 10.0 mi SE 5.8 mph - N/A   Scattered Clouds